******** Week 355 almanac for PRN-1 ******** ID: 1 Health: 0 Eccentricity: 0.001427173614 Time of Applicability(s): 233472 Orbital Inclination(rad): 0.9583988389 Rate of Right Ascen(r/s): -8.194627053e-09 SQRT(A) (m 1/2): 5153.580078 Right Ascen at Week(rad): -2.519855935 Argument of Perigee(rad): -0.0011935539 Mean Anom(rad): -0.5496002995 Af0(s): 0.0002683080566 Af1(s/s): -3.637979e-12 week: 355 ******** Week 355 almanac for PRN-2 ******** ID: 2 Health: 0 Eccentricity: 0.01697635651 Time of Applicability(s): 233472 Orbital Inclination(rad): 0.9638816218 Rate of Right Ascen(r/s): -8.091765626e-09 SQRT(A) (m 1/2): 5153.558594 Right Ascen at Week(rad): -2.682519692 Argument of Perigee(rad): -0.8401664461 Mean Anom(rad): 0.8479307258 Af0(s): 2.034920654e-05 Af1(s/s): 7.275958e-12 week: 355 ******** Week 355 almanac for PRN-3 ******** ID: 3 Health: 0 Eccentricity: 0.006375312805 Time of Applicability(s): 233472 Orbital Inclination(rad): 0.99266773 Rate of Right Ascen(r/s): -7.668890868e-09 SQRT(A) (m 1/2): 5153.60498 Right Ascen at Week(rad): -1.533621636 Argument of Perigee(rad): 1.206660522 Mean Anom(rad): -2.7693278 Af0(s): 0.0004635097046 Af1(s/s): -1.091394e-11 week: 355 ******** Week 355 almanac for PRN-4 ******** ID: 4 Health: 0 Eccentricity: 0.003720283508 Time of Applicability(s): 233472 Orbital Inclination(rad): 0.970556835 Rate of Right Ascen(r/s): -7.657461821e-09 SQRT(A) (m 1/2): 5153.697754 Right Ascen at Week(rad): -0.4624086966 Argument of Perigee(rad): -2.903829752 Mean Anom(rad): 0.2675380839 Af0(s): 3.240799561e-05 Af1(s/s): 3.637979e-12 week: 355 ******** Week 355 almanac for PRN-5 ******** ID: 5 Health: 0 Eccentricity: 0.005369186401 Time of Applicability(s): 233472 Orbital Inclination(rad): 0.9792453981 Rate of Right Ascen(r/s): -7.817468486e-09 SQRT(A) (m 1/2): 5153.642578 Right Ascen at Week(rad): -1.592948418 Argument of Perigee(rad): 1.421864245 Mean Anom(rad): 0.8906979304 Af0(s): -0.0001801281616 Af1(s/s): 0 week: 355 ******** Week 355 almanac for PRN-6 ******** ID: 6 Health: 0 Eccentricity: 0.003872871399 Time of Applicability(s): 233472 Orbital Inclination(rad): 0.9873467341 Rate of Right Ascen(r/s): -7.908900866e-09 SQRT(A) (m 1/2): 5153.570312 Right Ascen at Week(rad): -2.570287426 Argument of Perigee(rad): -0.6130758702 Mean Anom(rad): -1.400297509 Af0(s): -0.0004793368652 Af1(s/s): -3.637979e-12 week: 355 ******** Week 355 almanac for PRN-7 ******** ID: 7 Health: 0 Eccentricity: 0.02025604248 Time of Applicability(s): 233472 Orbital Inclination(rad): 0.9510045721 Rate of Right Ascen(r/s): -7.874613723e-09 SQRT(A) (m 1/2): 5153.57373 Right Ascen at Week(rad): 0.5461207547 Argument of Perigee(rad): -2.001902603 Mean Anom(rad): -2.303462778 Af0(s): -0.0001115437988 Af1(s/s): -3.637979e-12 week: 355 ******** Week 355 almanac for PRN-8 ******** ID: 8 Health: 0 Eccentricity: 0.01146030426 Time of Applicability(s): 233472 Orbital Inclination(rad): 0.9441316191 Rate of Right Ascen(r/s): -8.000333246e-09 SQRT(A) (m 1/2): 5153.623535 Right Ascen at Week(rad): 2.594454365 Argument of Perigee(rad): 0.5082423648 Mean Anom(rad): 0.5416161841 Af0(s): 0.0003949253418 Af1(s/s): -3.637979e-12 week: 355 ******** Week 355 almanac for PRN-9 ******** ID: 9 Health: 0 Eccentricity: 0.003343582153 Time of Applicability(s): 233472 Orbital Inclination(rad): 0.9646665885 Rate of Right Ascen(r/s): -7.714607058e-09 SQRT(A) (m 1/2): 5153.522949 Right Ascen at Week(rad): -0.5263962185 Argument of Perigee(rad): 2.065369935 Mean Anom(rad): 1.136523969 Af0(s): 0.0006089688477 Af1(s/s): 0 week: 355 ******** Week 355 almanac for PRN-10 ******** ID: 10 Health: 0 Eccentricity: 0.01096725464 Time of Applicability(s): 233472 Orbital Inclination(rad): 0.9922003452 Rate of Right Ascen(r/s): -7.646032773e-09 SQRT(A) (m 1/2): 5153.609863 Right Ascen at Week(rad): -1.536132706 Argument of Perigee(rad): -2.262232925 Mean Anom(rad): 2.537831149 Af0(s): -0.0004627560303 Af1(s/s): -3.637979e-12 week: 355 ******** Week 355 almanac for PRN-11 ******** ID: 11 Health: 0 Eccentricity: 0.002245426178 Time of Applicability(s): 233472 Orbital Inclination(rad): 0.9641932116 Rate of Right Ascen(r/s): -8.137481816e-09 SQRT(A) (m 1/2): 5153.508789 Right Ascen at Week(rad): -2.550742653 Argument of Perigee(rad): -2.284825061 Mean Anom(rad): -0.3965920824 Af0(s): -0.0003632710205 Af1(s/s): 1.455192e-11 week: 355 ******** Week 355 almanac for PRN-12 ******** ID: 12 Health: 0 Eccentricity: 0.009079456329 Time of Applicability(s): 233472 Orbital Inclination(rad): 0.9588182867 Rate of Right Ascen(r/s): -7.726036106e-09 SQRT(A) (m 1/2): 5153.505859 Right Ascen at Week(rad): 1.663985286 Argument of Perigee(rad): 1.539263585 Mean Anom(rad): -2.917021762 Af0(s): -0.0004793368652 Af1(s/s): 0 week: 355 ******** Week 355 almanac for PRN-13 ******** ID: 13 Health: 0 Eccentricity: 0.009930610657 Time of Applicability(s): 233472 Orbital Inclination(rad): 0.976255334 Rate of Right Ascen(r/s): -7.611745631e-09 SQRT(A) (m 1/2): 5153.623535 Right Ascen at Week(rad): -0.351809281 Argument of Perigee(rad): 0.9999966831 Mean Anom(rad): 0.2755765028 Af0(s): 0.0005441528564 Af1(s/s): 0 week: 355 ******** Week 355 almanac for PRN-14 ******** ID: 14 Health: 0 Eccentricity: 0.006560325623 Time of Applicability(s): 233472 Orbital Inclination(rad): 0.942154222 Rate of Right Ascen(r/s): -7.931758961e-09 SQRT(A) (m 1/2): 5153.591309 Right Ascen at Week(rad): 1.609876136 Argument of Perigee(rad): -2.762127153 Mean Anom(rad): -3.115685382 Af0(s): 0.0005780682007 Af1(s/s): 3.637979e-12 week: 355 ******** Week 355 almanac for PRN-15 ******** ID: 15 Health: 0 Eccentricity: 0.01660394669 Time of Applicability(s): 233472 Orbital Inclination(rad): 0.9424298592 Rate of Right Ascen(r/s): -7.977475151e-09 SQRT(A) (m 1/2): 5153.62793 Right Ascen at Week(rad): -0.6695784946 Argument of Perigee(rad): 1.495051157 Mean Anom(rad): -0.4623060817 Af0(s): 0.0003007160522 Af1(s/s): 3.637979e-12 week: 355 ******** Week 355 almanac for PRN-16 ******** ID: 16 Health: 0 Eccentricity: 0.01505327225 Time of Applicability(s): 233472 Orbital Inclination(rad): 0.9579674068 Rate of Right Ascen(r/s): -7.771752296e-09 SQRT(A) (m 1/2): 5153.578125 Right Ascen at Week(rad): 1.681026479 Argument of Perigee(rad): 0.9247016706 Mean Anom(rad): 1.547319231 Af0(s): 0.0001552569092 Af1(s/s): 7.275958e-12 week: 355 ******** Week 355 almanac for PRN-17 ******** ID: 17 Health: 0 Eccentricity: 0.01276445389 Time of Applicability(s): 233472 Orbital Inclination(rad): 0.9599088512 Rate of Right Ascen(r/s): -7.874613723e-09 SQRT(A) (m 1/2): 5153.526855 Right Ascen at Week(rad): 2.698585669 Argument of Perigee(rad): -1.131754248 Mean Anom(rad): 0.4416104488 Af0(s): -3.617636719e-05 Af1(s/s): -1.091394e-11 week: 355 ******** Week 355 almanac for PRN-18 ******** ID: 18 Health: 0 Eccentricity: 0.005703926086 Time of Applicability(s): 233472 Orbital Inclination(rad): 0.972312524 Rate of Right Ascen(r/s): -8.046049436e-09 SQRT(A) (m 1/2): 5153.59668 Right Ascen at Week(rad): -2.574839559 Argument of Perigee(rad): -2.85621755 Mean Anom(rad): -1.544041171 Af0(s): -0.0003481975342 Af1(s/s): 1.091394e-11 week: 355 ******** Week 355 almanac for PRN-19 ******** ID: 19 Health: 0 Eccentricity: 0.01101970673 Time of Applicability(s): 233472 Orbital Inclination(rad): 0.9591119002 Rate of Right Ascen(r/s): -7.886042771e-09 SQRT(A) (m 1/2): 5153.665039 Right Ascen at Week(rad): 2.742485009 Argument of Perigee(rad): 2.918545631 Mean Anom(rad): 2.29410984 Af0(s): 0.0005433991821 Af1(s/s): 0 week: 355 ******** Week 355 almanac for PRN-21 ******** ID: 21 Health: 0 Eccentricity: 0.0006103515625 Time of Applicability(s): 233472 Orbital Inclination(rad): 0.9620959722 Rate of Right Ascen(r/s): -7.954617056e-09 SQRT(A) (m 1/2): 5153.699707 Right Ascen at Week(rad): -1.526345339 Argument of Perigee(rad): -0.4471085865 Mean Anom(rad): -3.113429726 Af0(s): 0.0003067454468 Af1(s/s): 7.275958e-12 week: 355 ******** Week 355 almanac for PRN-22 ******** ID: 22 Health: 0 Eccentricity: 0.01217937469 Time of Applicability(s): 233472 Orbital Inclination(rad): 0.9574041482 Rate of Right Ascen(r/s): -7.783181343e-09 SQRT(A) (m 1/2): 5153.575684 Right Ascen at Week(rad): 1.684369703 Argument of Perigee(rad): -0.9963463631 Mean Anom(rad): 1.092875175 Af0(s): -4.220576172e-05 Af1(s/s): 3.637979e-12 week: 355 ******** Week 355 almanac for PRN-23 ******** ID: 23 Health: 0 Eccentricity: 0.006000518799 Time of Applicability(s): 233472 Orbital Inclination(rad): 0.9872029234 Rate of Right Ascen(r/s): -7.714607058e-09 SQRT(A) (m 1/2): 5153.658691 Right Ascen at Week(rad): -1.568072538 Argument of Perigee(rad): -2.743607406 Mean Anom(rad): -2.650041319 Af0(s): 0.0004778295166 Af1(s/s): 3.637979e-12 week: 355 ******** Week 355 almanac for PRN-24 ******** ID: 24 Health: 0 Eccentricity: 0.01783752441 Time of Applicability(s): 233472 Orbital Inclination(rad): 0.9350595609 Rate of Right Ascen(r/s): -8.091765626e-09 SQRT(A) (m 1/2): 5153.586914 Right Ascen at Week(rad): 0.4382541168 Argument of Perigee(rad): 1.130858053 Mean Anom(rad): -1.322328516 Af0(s): -0.0001153121704 Af1(s/s): 1.455192e-11 week: 355 ******** Week 355 almanac for PRN-25 ******** ID: 25 Health: 0 Eccentricity: 0.01294755936 Time of Applicability(s): 233472 Orbital Inclination(rad): 0.9471456517 Rate of Right Ascen(r/s): -7.863184676e-09 SQRT(A) (m 1/2): 5153.682129 Right Ascen at Week(rad): 1.570508706 Argument of Perigee(rad): 1.152872325 Mean Anom(rad): -3.078909541 Af0(s): 0.0003534732544 Af1(s/s): -3.637979e-12 week: 355 ******** Week 355 almanac for PRN-26 ******** ID: 26 Health: 0 Eccentricity: 0.01097917557 Time of Applicability(s): 233472 Orbital Inclination(rad): 0.9279229549 Rate of Right Ascen(r/s): -8.114623721e-09 SQRT(A) (m 1/2): 5153.637695 Right Ascen at Week(rad): 1.496588509 Argument of Perigee(rad): 0.7046900266 Mean Anom(rad): 2.376932069 Af0(s): -0.0002509735474 Af1(s/s): -7.275958e-12 week: 355 ******** Week 355 almanac for PRN-27 ******** ID: 27 Health: 0 Eccentricity: 0.01422548294 Time of Applicability(s): 233472 Orbital Inclination(rad): 0.9532635985 Rate of Right Ascen(r/s): -7.920329913e-09 SQRT(A) (m 1/2): 5153.618164 Right Ascen at Week(rad): 2.626173237 Argument of Perigee(rad): 0.8707808976 Mean Anom(rad): 0.6343220284 Af0(s): -2.185655518e-05 Af1(s/s): -7.275958e-12 week: 355 ******** Week 355 almanac for PRN-28 ******** ID: 28 Health: 0 Eccentricity: 0.0004005432129 Time of Applicability(s): 233472 Orbital Inclination(rad): 0.9619701379 Rate of Right Ascen(r/s): -7.806039438e-09 SQRT(A) (m 1/2): 5153.712402 Right Ascen at Week(rad): 0.5199973914 Argument of Perigee(rad): 0.2701394098 Mean Anom(rad): -2.211208964 Af0(s): -0.0004785831909 Af1(s/s): 7.275958e-12 week: 355 ******** Week 355 almanac for PRN-29 ******** ID: 29 Health: 0 Eccentricity: 0.003291606903 Time of Applicability(s): 233472 Orbital Inclination(rad): 0.962563357 Rate of Right Ascen(r/s): -7.874613723e-09 SQRT(A) (m 1/2): 5153.733398 Right Ascen at Week(rad): 2.715204044 Argument of Perigee(rad): 2.745821117 Mean Anom(rad): 0.5109013647 Af0(s): -0.0003052380981 Af1(s/s): 7.275958e-12 week: 355 ******** Week 355 almanac for PRN-30 ******** ID: 30 Health: 0 Eccentricity: 0.007924556732 Time of Applicability(s): 233472 Orbital Inclination(rad): 0.9362699676 Rate of Right Ascen(r/s): -8.057478483e-09 SQRT(A) (m 1/2): 5153.711426 Right Ascen at Week(rad): 0.537614951 Argument of Perigee(rad): -2.341011976 Mean Anom(rad): -2.425181682 Af0(s): 8.064315185e-05 Af1(s/s): 1.091394e-11 week: 355 ******** Week 355 almanac for PRN-31 ******** ID: 31 Health: 0 Eccentricity: 0.01084756851 Time of Applicability(s): 233472 Orbital Inclination(rad): 0.9547616266 Rate of Right Ascen(r/s): -7.886042771e-09 SQRT(A) (m 1/2): 5153.704102 Right Ascen at Week(rad): 0.5701906959 Argument of Perigee(rad): 0.9331644059 Mean Anom(rad): 2.904535323 Af0(s): -0.0001349077026 Af1(s/s): 3.637979e-12 week: 355 ******** Week 355 almanac for PRN-32 ******** ID: 32 Health: 0 Eccentricity: 0.009221553802 Time of Applicability(s): 233472 Orbital Inclination(rad): 0.9677345501 Rate of Right Ascen(r/s): -7.657461821e-09 SQRT(A) (m 1/2): 5153.669922 Right Ascen at Week(rad): -0.5095156887 Argument of Perigee(rad): -2.019330662 Mean Anom(rad): 1.237598922 Af0(s): -0.0001138048218 Af1(s/s): 1.818989e-11 week: 355